Weather History for Alva, OK

Change the Weather History Date:

Thursday, March 27, 2014

  Actual Average Record
Temperature  
Mean Temperature 60 °F -  
Max Temperature 71 °F 67 °F 87 °F (1971)
Min Temperature 46 °F 40 °F 12 °F (1955)
Degree Days  
Heating Degree Days 4    
Growing Degree Days 10 (Base 50)    
Moisture  
Dew Point 43 °F    
Average Humidity 55    
Maximum Humidity 88    
Minimum Humidity 25    
Precipitation  
Precipitation 0.00 in - - ()
Sea Level Pressure  
Sea Level Pressure 29.58 in    
Wind  
Wind Speed 27 mph (West)    
Max Wind Speed 41 mph    
Max Gust Speed 56 mph    
Visibility 10 miles    
Events      
Averages and records for this station are not official NWS values.
T = Trace of Precipitation, MM = Missing Value Source: NWS Daily Summary

Daily Weather History Graph

Daily Weather History Graph

Search for Another Location

Airport:

Trip Planner

Search our weather history database for the weather conditions in past years. The results will help you decide how hot, cold, wet, or windy it might be!

Date:

Astronomy

Mar. 27, 2014 Rise Set
Actual Time 7:27 AM CDT 7:52 PM CDT
Civil Twilight 7:01 AM CDT 8:18 PM CDT
Nautical Twilight 6:31 AM CDT 8:49 PM CDT
Astronomical Twilight 6:00 AM CDT 9:20 PM CDT
Moon 5:15 AM CDT (3/27) 4:46 PM CDT (3/27)
Length of Visible Light 13h 16m
Length of Day
12h 24m
Waning Crescent, 13% of the Moon is Illuminated
Mar 27
Waning Crescent
Mar 30
New
Apr 7
First Quarter
Apr 15
Full
Apr 22
Last Quarter

Hourly Weather History & Observations

Time (CDT) Temp. Windchill Dew Point Humidity Pressure Visibility Wind Dir Wind Speed Gust Speed Precip Events Conditions
12:10 AM 53.6 °F - 48.2 °F 82% 29.56 in 10.0 mi South 21.9 mph 27.6 mph N/A   Overcast
12:30 AM 53.6 °F - 50.0 °F 88% 29.54 in 10.0 mi SSW 35.7 mph 43.7 mph N/A   Mostly Cloudy
12:50 AM 55.4 °F - 50.0 °F 82% 29.54 in 10.0 mi SSW 31.1 mph 44.9 mph N/A   Mostly Cloudy
1:10 AM 57.2 °F - 50.0 °F 77% 29.53 in 10.0 mi South 39.1 mph 47.2 mph N/A   Overcast
1:30 AM 57.2 °F - 50.0 °F 77% 29.52 in 10.0 mi SSW 33.4 mph 47.2 mph N/A   Overcast
1:50 AM 57.2 °F - 50.0 °F 77% 29.51 in 10.0 mi SSW 36.8 mph 51.8 mph N/A   Overcast
2:10 AM 57.2 °F - 50.0 °F 77% 29.51 in 10.0 mi SSW 36.8 mph 56.4 mph N/A   Mostly Cloudy
2:30 AM 57.2 °F - 50.0 °F 77% 29.50 in 10.0 mi SSW 38.0 mph 48.3 mph N/A   Mostly Cloudy
2:50 AM 57.2 °F - 50.0 °F 77% 29.50 in 10.0 mi SSW 40.3 mph 50.6 mph N/A   Mostly Cloudy
3:10 AM 57.2 °F - 50.0 °F 77% 29.49 in 10.0 mi SSW 34.5 mph 48.3 mph N/A   Partly Cloudy
3:30 AM 57.2 °F - 50.0 °F 77% 29.48 in 10.0 mi SSW 34.5 mph 47.2 mph N/A   Mostly Cloudy
3:50 AM 57.2 °F - 50.0 °F 77% 29.48 in 10.0 mi South 34.5 mph 44.9 mph N/A   Overcast
4:10 AM 57.2 °F - 50.0 °F 77% 29.47 in 10.0 mi SSW 36.8 mph 49.5 mph N/A   Overcast
4:30 AM 57.2 °F - 50.0 °F 77% 29.46 in 10.0 mi SSW 41.4 mph 48.3 mph N/A   Overcast
4:50 AM 59.0 °F - 51.8 °F 77% 29.46 in 10.0 mi South 33.4 mph 46.0 mph N/A   Overcast
5:15 AM 59.0 °F - 51.8 °F 77% 29.48 in 10.0 mi SSW 31.1 mph 43.7 mph N/A   Overcast
5:30 AM 59.0 °F - 51.8 °F 77% 29.49 in 10.0 mi SSW 26.5 mph 36.8 mph N/A   Overcast
5:50 AM 59.0 °F - 51.8 °F 77% 29.49 in 10.0 mi SSW 24.2 mph 29.9 mph N/A   Overcast
6:10 AM 57.2 °F - 51.8 °F 82% 29.49 in 10.0 mi SSW 26.5 mph 33.4 mph N/A   Overcast
6:30 AM 57.2 °F - 51.8 °F 82% 29.48 in 10.0 mi SSW 23.0 mph 31.1 mph N/A   Mostly Cloudy
6:50 AM 57.2 °F - 50.0 °F 77% 29.47 in 10.0 mi SSW 25.3 mph 34.5 mph N/A   Mostly Cloudy
7:10 AM 57.2 °F - 50.0 °F 77% 29.46 in 10.0 mi SSW 26.5 mph 36.8 mph N/A   Mostly Cloudy
7:30 AM 57.2 °F - 50.0 °F 77% 29.46 in 10.0 mi SSW 27.6 mph 39.1 mph N/A   Partly Cloudy
7:50 AM 57.2 °F - 50.0 °F 77% 29.45 in 10.0 mi SSW 26.5 mph 36.8 mph N/A   Clear
8:10 AM 57.2 °F - 50.0 °F 77% 29.47 in 10.0 mi SW 24.2 mph 34.5 mph N/A   Clear
8:30 AM 57.2 °F - 50.0 °F 77% 29.49 in 10.0 mi SW 24.2 mph 33.4 mph N/A   Clear
8:55 AM 59.0 °F - 50.0 °F 72% 29.47 in 10.0 mi SW 29.9 mph 35.7 mph N/A   Clear
9:15 AM 59.0 °F - 50.0 °F 72% 29.47 in 9.0 mi SW 29.9 mph 41.4 mph N/A   Clear
9:30 AM 60.8 °F - 50.0 °F 68% 29.47 in 10.0 mi SSW 27.6 mph 41.4 mph N/A   Clear
9:50 AM 62.6 °F - 48.2 °F 59% 29.46 in 10.0 mi SW 27.6 mph 44.9 mph N/A   Clear
10:10 AM 64.4 °F - 44.6 °F 49% 29.46 in 10.0 mi SW 28.8 mph 38.0 mph N/A   Clear
10:30 AM 64.4 °F - 42.8 °F 45% 29.46 in 10.0 mi SW 32.2 mph 39.1 mph N/A   Clear
10:50 AM 66.2 °F - 39.2 °F 37% 29.47 in 10.0 mi WSW 31.1 mph 36.8 mph N/A   Clear
11:10 AM 68.0 °F - 35.6 °F 30% 29.47 in 10.0 mi WSW 29.9 mph 42.6 mph N/A   Clear
11:30 AM 68.0 °F - 35.6 °F 30% 29.47 in 10.0 mi WSW 27.6 mph 34.5 mph N/A   Clear
11:50 AM 69.8 °F - 33.8 °F 27% 29.48 in 10.0 mi West 25.3 mph 40.3 mph N/A   Clear
12:10 PM 71.6 °F - 33.8 °F 25% 29.49 in 10.0 mi West 23.0 mph 33.4 mph N/A   Clear
12:30 PM 71.6 °F - 35.6 °F 27% 29.50 in 10.0 mi WNW 23.0 mph 32.2 mph N/A   Clear
12:50 PM 71.6 °F - 35.6 °F 27% 29.51 in 10.0 mi NW 25.3 mph 33.4 mph N/A   Clear
1:10 PM 71.6 °F - 37.4 °F 29% 29.52 in 10.0 mi NW 19.6 mph 29.9 mph N/A   Clear
1:30 PM 69.8 °F - 37.4 °F 31% 29.54 in 10.0 mi NW 23.0 mph 32.2 mph N/A   Clear
1:50 PM 69.8 °F - 46.4 °F 43% 29.56 in 10.0 mi NW 23.0 mph 29.9 mph N/A   Clear
2:10 PM 68.0 °F - 46.4 °F 46% 29.57 in 10.0 mi NNW 21.9 mph 31.1 mph N/A   Clear
2:35 PM 68.0 °F - 44.6 °F 43% 29.58 in 10.0 mi NNW 18.4 mph 29.9 mph N/A   Clear
2:50 PM 68.0 °F - 44.6 °F 43% 29.58 in 10.0 mi NW 23.0 mph 27.6 mph N/A   Clear
3:10 PM 68.0 °F - 44.6 °F 43% 29.59 in 10.0 mi NNW 17.3 mph 28.8 mph N/A   Clear
3:30 PM 68.0 °F - 42.8 °F 40% 29.60 in 10.0 mi NW 18.4 mph 25.3 mph N/A   Clear
3:50 PM 68.0 °F - 41.0 °F 37% 29.61 in 10.0 mi NW 12.7 mph 26.5 mph N/A   Clear
4:10 PM 68.0 °F - 41.0 °F 37% 29.62 in 10.0 mi NW 17.3 mph 24.2 mph N/A   Clear
4:30 PM 68.0 °F - 41.0 °F 37% 29.63 in 10.0 mi WNW 16.1 mph 24.2 mph N/A   Clear
4:50 PM 69.8 °F - 41.0 °F 35% 29.63 in 10.0 mi WNW 13.8 mph 20.7 mph N/A   Clear
5:10 PM 68.0 °F - 39.2 °F 35% 29.64 in 10.0 mi NW 19.6 mph 23.0 mph N/A   Clear
5:30 PM 68.0 °F - 39.2 °F 35% 29.65 in 10.0 mi NW 19.6 mph 25.3 mph N/A   Clear
5:50 PM 68.0 °F - 41.0 °F 37% 29.66 in 10.0 mi NW 15.0 mph 21.9 mph N/A   Clear
6:10 PM 68.0 °F - 39.2 °F 35% 29.67 in 10.0 mi NW 13.8 mph 19.6 mph N/A   Clear
6:30 PM 66.2 °F - 37.4 °F 35% 29.69 in 10.0 mi NW 11.5 mph 18.4 mph N/A   Clear
6:50 PM 66.2 °F - 39.2 °F 37% 29.70 in 10.0 mi NNW 12.7 mph - N/A   Clear
7:15 PM 64.4 °F - 37.4 °F 37% 29.70 in 10.0 mi NNW 10.4 mph - N/A   Clear
7:30 PM 62.6 °F - 37.4 °F 39% 29.71 in 10.0 mi NNW 10.4 mph - N/A   Clear
7:50 PM 60.8 °F - 37.4 °F 42% 29.73 in 10.0 mi North 10.4 mph - N/A   Clear
8:15 PM 60.8 °F - 35.6 °F 39% 29.74 in 10.0 mi North 15.0 mph 23.0 mph N/A   Scattered Clouds
8:30 PM 59.0 °F - 35.6 °F 42% 29.74 in 10.0 mi North 16.1 mph 19.6 mph N/A   Scattered Clouds
8:50 PM 57.2 °F - 35.6 °F 44% 29.75 in 10.0 mi North 15.0 mph 20.7 mph N/A   Clear
9:10 PM 57.2 °F - 35.6 °F 44% 29.77 in 10.0 mi North 15.0 mph 20.7 mph N/A   Clear
9:30 PM 55.4 °F - 35.6 °F 47% 29.78 in 10.0 mi North 13.8 mph - N/A   Clear
9:50 PM 55.4 °F - 33.8 °F 44% 29.79 in 10.0 mi North 13.8 mph 19.6 mph N/A   Clear
10:10 PM 53.6 °F - 35.6 °F 51% 29.79 in 10.0 mi NNE 13.8 mph - N/A   Clear
10:30 PM 53.6 °F - 33.8 °F 47% 29.82 in 10.0 mi NNE 12.7 mph - N/A   Partly Cloudy
10:50 PM 51.8 °F - 33.8 °F 50% 29.82 in 10.0 mi NNE 13.8 mph - N/A   Partly Cloudy
11:10 PM 50.0 °F - 35.6 °F 58% 29.83 in 10.0 mi NNE 12.7 mph - N/A   Mostly Cloudy
11:30 PM 50.0 °F - 35.6 °F 58% 29.83 in 10.0 mi NE 10.4 mph - N/A   Scattered Clouds
11:55 PM 46.4 °F 40.4 °F 35.6 °F 66% 29.85 in 10.0 mi NE 13.8 mph - N/A   Clear